This demonstration page uses our WeatherBlox Daily Observations layout. Learn more.

Left ArrowRight Arrow

Hourly Observations for June 9, 2017

Temp ( °F °C ) Dew Point ( °F °C ) Humidity (%) Winds ( mph kmh ) Pressure ( in mb ) Visibility ( mi km ) Precip ( " mm )
12:53 am 00:53 Mostly Cloudy 66 18.9 65 18.3 96 96 Calm 29.88 1012 10 16 0.00 0.00
1:53 am 01:53 Mostly Clear 66 18.9 65 18.3 96 96 Calm 29.88 1012 10 16 0.00 0.00
2:53 am 02:53 Mostly Clear 65 18.3 64 17.8 97 97 Calm 29.87 1012 10 16 0.00 0.00
3:53 am 03:53 Clear 63 17.2 63 17.2 100 100 Calm 29.87 1012 10 16 0.00 0.00
4:53 am 04:53 Clear 63 17.2 62 16.7 97 97 Calm 29.88 1012 10 16 0.00 0.00
5:53 am 05:53 Clear 63 17.2 62 16.7 97 97 Calm 29.91 1013 10 16 0.00 0.00
6:53 am 06:53 Sunny 62 16.7 62 16.7 100 100 Calm 29.92 1013 10 16 0.00 0.00
7:53 am 07:53 Sunny 65 18.3 63 17.2 93 93 Calm 29.95 1014 10 16 0.00 0.00
8:53 am 08:53 Sunny 69 20.6 64 17.8 84 84 Calm 29.96 1015 10 16 0.00 0.00
9:53 am 09:53 Sunny 73 22.8 66 18.9 79 79 Calm 29.97 1015 10 16 0.00 0.00
10:53 am 10:53 Sunny 77 25 64 17.8 64 64 Calm 29.97 1015 10 16 0.00 0.00
11:53 am 11:53 Mostly Sunny 80 26.7 59 15 49 49 W 8 13 29.97 1015 10 16 0.00 0.00
12:53 pm 12:53 Partly Cloudy 81 27.2 59 15 47 47 VRB 7 11 29.96 1015 10 16 0.00 0.00
1:53 pm 13:53 Sunny 82 27.8 57 13.9 42 42 SSW 10 17 29.95 1014 10 16 0.00 0.00
2:53 pm 14:53 Sunny 82 27.8 58 14.4 44 44 WSW 7 11 29.94 1014 10 16 0.00 0.00
3:53 pm 15:53 Partly Cloudy 84 28.9 60 15.6 44 44 W 8 13 29.93 1014 10 16 0.00 0.00
4:53 pm 16:53 Partly Cloudy 83 28.3 58 14.4 43 43 VRB 6 9 29.93 1013 10 16 0.00 0.00
5:53 pm 17:53 Sunny 83 28.3 57 13.9 41 41 VRB 7 11 29.91 1013 10 16 0.00 0.00
6:53 pm 18:53 Sunny 82 27.8 57 13.9 42 42 W 7 11 29.91 1013 10 16 0.00 0.00
7:53 pm 19:53 Sunny 82 27.8 57 13.9 42 42 WSW 6 9 29.92 1013 10 16 0.00 0.00
8:53 pm 20:53 Clear 79 26.1 59 15 50 50 SW 3 6 29.93 1014 10 16 0.00 0.00
9:53 pm 21:53 Clear 71 21.7 63 17.2 76 76 Calm 29.95 1014 10 16 0.00 0.00
10:53 pm 22:53 Clear 69 20.6 64 17.8 84 84 Calm 29.98 1015 10 16 0.00 0.00
11:53 pm 23:53 Clear 66 18.9 64 17.8 93 93 Calm 29.99 1016 10 16 0.00 0.00

Powered by AerisWeather